Spokane Fairchild, WA
on Wednesday, December 19, 2012

Wednesday
Previous Day Next Day
Daily Summary
 ActualAverage (KGEG)Record (KGEG)
Temperature
Mean Temperature °F 26°F  
Max Temperature 32°F 31°F 54°F (1936)
Min Temperature 21°F 22°F -7°F (1983)
Degree Days
Heating Degree Days 38 39  
Month to date heating degree days 706  
Since 1 July heating degree days 2373  
Cooling Degree Days 0 0  
Month to date cooling degree days 0  
Year to date cooling degree days 450  
Moisture
Dew Point 26°F   
Average Humidity 99    
Maximum Humidity 100    
Minimum Humidity 80    
Precipitation
Precipitation 0.06 in 0.08 in 0.88 in (1895)
Month to date precipitation 1.48  
Year to date precipitation 15.74  
Snow
Snow 0.00 in 0.50 in 8.90 in (1895)
Month to date snowfall 8.3  
Since 1 July snowfall 15.8  
Snow Depth 3.00 in   
Wind
Wind Speed 12 mph   
Max Wind Speed 23 mph   
Max Gust Speed 31 mph   
Visibility 5 miles   
Events Fog , Rain , Snow   

Key: T is trace of precipitation, MM is missing value
Source: NWS Daily Summary
Time(PST)TemperatureDew PointHumidity Pressure Visibility Wind DirectionWind SpeedGust SpeedPrecipitationEvents Conditions
12:04 AM 23.0°F 23.0°F 100% 29.92 in 10.0 miles South 11.5 mph - N/A Snow Light Snow
12:09 AM 23.0°F 23.0°F 100% 29.92 in 10.0 miles South 11.5 mph - N/A Snow Light Snow
12:23 AM 23.0°F 23.0°F 100% 29.92 in 10.0 miles South 9.2 mph - N/A   Overcast
12:38 AM 21.2°F 21.2°F 100% 29.92 in 10.0 miles South 9.2 mph - N/A   Scattered Clouds
12:58 AM 21.7°F 21.7°F 100% 30.01 in 10.0 miles South 9.2 mph - 0.00 in   Clear
1:08 AM 21.2°F 21.2°F 100% 29.92 in 10.0 miles South 9.2 mph - N/A   Partly Cloudy
1:11 AM 21.2°F 21.2°F 100% 29.92 in 10.0 miles South 10.4 mph - N/A Snow Light Snow
1:21 AM 21.2°F 21.2°F 100% 29.93 in 10.0 miles South 12.7 mph - N/A Snow Light Snow
1:26 AM 21.2°F 21.2°F 100% 29.93 in 8.0 miles South 12.7 mph - N/A Snow Light Snow
1:31 AM 21.2°F 21.2°F 100% 29.93 in 6.0 miles South 10.4 mph - N/A Snow Light Snow
1:36 AM 21.2°F 21.2°F 100% 29.93 in 4.0 miles South 13.8 mph - N/A Snow Light Snow
1:41 AM 23.0°F 23.0°F 100% 29.93 in 2.5 miles South 13.8 mph - N/A Snow Light Snow
1:46 AM 23.0°F 23.0°F 100% 29.93 in 3.0 miles South 8.1 mph - N/A   Overcast
1:47 AM 23.0°F 23.0°F 100% 29.93 in 4.0 miles South 9.2 mph - N/A   Light Freezing Drizzle
1:52 AM 23.0°F 23.0°F 100% 29.93 in 7.0 miles South 11.5 mph - N/A   Light Freezing Drizzle
1:54 AM 23.0°F 23.0°F 100% 29.93 in 7.0 miles South 12.7 mph - N/A Snow Light Snow
1:58 AM 22.3°F 22.3°F 100% 30.02 in 5.0 miles South 10.4 mph - 0.00 in Snow Light Snow
2:03 AM 23.0°F 23.0°F 100% 29.94 in 4.0 miles SSW 10.4 mph - N/A Snow Light Snow
2:04 AM 23.0°F 23.0°F 100% 29.94 in 3.0 miles South 11.5 mph - N/A   Overcast
2:09 AM 23.0°F 23.0°F 100% 29.94 in 1.5 miles SSW 12.7 mph - N/A   Overcast
2:14 AM 23.0°F 23.0°F 100% 29.94 in 1.2 miles SSW 9.2 mph - N/A   Overcast
2:16 AM 23.0°F 23.0°F 100% 29.94 in 1.5 miles SSW 9.2 mph - N/A   Light Freezing Drizzle
2:21 AM 23.0°F 23.0°F 100% 29.94 in 3.0 miles SSW 9.2 mph - N/A   Light Freezing Drizzle
2:26 AM 23.0°F 23.0°F 100% 29.94 in 6.0 miles SSW 8.1 mph - N/A   Light Freezing Drizzle
2:29 AM 23.0°F 23.0°F 100% 29.94 in 7.0 miles South 8.1 mph - N/A Snow Light Snow
2:34 AM 23.0°F 23.0°F 100% 29.94 in 10.0 miles South 8.1 mph - N/A Snow Light Snow
2:39 AM 23.0°F 23.0°F 100% 29.94 in 8.0 miles South 10.4 mph - N/A   Overcast
2:40 AM 23.0°F 23.0°F 100% 29.94 in 8.0 miles South 11.5 mph - N/A   Light Freezing Drizzle
2:49 AM 23.0°F 23.0°F 100% 29.94 in 5.0 miles South 10.4 mph - N/A Snow Light Snow
2:58 AM 23.0°F 23.0°F 100% 30.03 in 6.0 miles South 5.8 mph - 0.00 in Snow Light Snow
2:59 AM 23.0°F 23.0°F 100% 29.94 in 8.0 miles South 4.6 mph - N/A   Overcast
3:00 AM 23.0°F 23.0°F 100% 29.94 in 9.0 miles South 4.6 mph - N/A   Light Freezing Drizzle
3:03 AM 23.0°F 23.0°F 100% 29.94 in 10.0 miles South 5.8 mph - N/A Snow Light Snow
3:28 AM 23.0°F 23.0°F 100% 29.94 in 10.0 miles South 9.2 mph - N/A Snow Light Snow
3:51 AM 23.0°F 23.0°F 100% 29.94 in 10.0 miles South 5.8 mph - N/A   Overcast
3:56 AM 23.0°F 23.0°F 100% 29.94 in 10.0 miles South 8.1 mph - N/A Snow Light Snow
3:58 AM 23.4°F 23.4°F 100% 30.03 in 10.0 miles South 8.1 mph - 0.00 in Snow Light Snow
4:02 AM 23.0°F 23.0°F 100% 29.94 in 10.0 miles South 8.1 mph - N/A   Overcast
4:17 AM 23.0°F 23.0°F 100% 29.94 in 10.0 miles South 8.1 mph - N/A   Overcast
4:30 AM 23.0°F 23.0°F 100% 29.95 in 10.0 miles South 8.1 mph - N/A Snow Light Snow
4:55 AM 23.0°F 23.0°F 100% 29.95 in 10.0 miles South 10.4 mph - N/A Snow Light Snow
4:58 AM 23.5°F 23.5°F 100% 30.04 in 10.0 miles South 9.2 mph - 0.00 in Snow Light Snow
5:00 AM 23.0°F 23.0°F 100% 29.95 in 10.0 miles South 9.2 mph - N/A   Overcast
5:06 AM 23.0°F 23.0°F 100% 29.95 in 10.0 miles South 8.1 mph - N/A Snow Light Snow
5:18 AM 24.8°F 24.8°F 100% 29.95 in 10.0 miles South 8.1 mph - N/A   Overcast
5:33 AM 24.8°F 24.8°F 100% 29.95 in 10.0 miles South 9.2 mph - N/A   Overcast
5:43 AM 24.8°F 24.8°F 100% 29.95 in 10.0 miles South 8.1 mph - N/A   Overcast
5:58 AM 24.8°F 24.8°F 100% 30.05 in 10.0 miles South 8.1 mph - 0.00 in   Overcast
6:08 AM 24.8°F 24.8°F 100% 29.96 in 10.0 miles South 6.9 mph - N/A   Overcast
6:55 AM 24.1°F 24.1°F 100% 30.05 in 10.0 miles SSE 8.1 mph - N/A   Overcast
7:23 AM 24.8°F 24.8°F 100% 29.96 in 10.0 miles SSE 8.1 mph - N/A   Overcast
7:58 AM 23.9°F 23.9°F 100% 30.04 in 10.0 miles SSE 6.9 mph - N/A   Partly Cloudy
8:58 AM 25.9°F 25.9°F 100% 30.06 in 10.0 miles SSE 8.1 mph - N/A   Mostly Cloudy
9:58 AM 27.9°F 27.7°F 99% 30.07 in 10.0 miles SSE 11.5 mph - N/A   Overcast
10:03 AM 28.4°F 28.4°F 100% 29.96 in 10.0 miles SSE 10.4 mph - N/A   Overcast
10:24 AM 28.4°F 28.4°F 100% 29.96 in 10.0 miles SSE 11.5 mph - N/A Rain Light Freezing Rain
10:25 AM 28.4°F 28.4°F 100% 29.96 in 10.0 miles SSE 11.5 mph - N/A   Overcast
10:40 AM 28.4°F 28.4°F 100% 29.96 in 8.0 miles South 12.7 mph - N/A   Overcast
10:45 AM 28.4°F 28.4°F 100% 29.96 in 8.0 miles SSE 12.7 mph - N/A   Overcast
10:58 AM 28.0°F 28.0°F 100% 30.06 in 6.0 miles SSE 12.7 mph - 0.00 in Snow Light Snow
11:28 AM 28.4°F 28.4°F 100% 29.94 in 10.0 miles SSE 12.7 mph - N/A   Overcast
11:58 AM 28.6°F 28.6°F 100% 30.03 in 10.0 miles SE 11.5 mph - 0.00 in Snow Light Snow
12:17 PM 28.4°F 28.4°F 100% 29.93 in 10.0 miles SE 16.1 mph - N/A   Overcast
12:58 PM 30.0°F 27.0°F 88% 30.01 in 10.0 miles SE 13.8 mph - 0.00 in   Overcast
1:13 PM 30.2°F 24.8°F 80% 29.92 in 10.0 miles SSE 13.8 mph - N/A   Overcast
1:18 PM 30.2°F 24.8°F 80% 29.92 in 10.0 miles SE 13.8 mph - N/A   Overcast
1:20 PM 30.2°F 24.8°F 80% 29.91 in 10.0 miles SSE 16.1 mph - N/A   Overcast
1:31 PM 30.2°F 26.6°F 86% 29.92 in 10.0 miles SSE 13.8 mph 23.0 mph N/A   Overcast
1:32 PM 30.2°F 26.6°F 86% 29.91 in 10.0 miles SSE 13.8 mph 23.0 mph N/A   Overcast
1:52 PM 28.4°F 28.4°F 100% 29.92 in 3.0 miles SSE 17.3 mph - N/A Snow Light Snow
1:57 PM 28.4°F 28.4°F 100% 29.92 in 1.5 miles SSE 16.1 mph - N/A Snow Light Snow
1:58 PM 28.2°F 28.2°F 100% 30.01 in 1.5 miles SSE 16.1 mph - 0.00 in Snow Light Snow
2:03 PM 28.4°F 28.4°F 100% 29.91 in 1.2 miles SSE 15.0 mph - N/A Snow Light Snow
2:08 PM 28.4°F 28.4°F 100% 29.92 in 1.0 miles SSE 12.7 mph - N/A Snow Light Snow
2:23 PM 26.6°F 26.6°F 100% 29.91 in 1.0 miles SE 10.4 mph - N/A Snow Light Snow
2:33 PM 26.6°F 26.6°F 100% 29.92 in 0.8 miles SE 12.7 mph - N/A Snow Light Snow
2:38 PM 26.6°F 26.6°F 100% 29.91 in 1.0 miles SSE 13.8 mph - N/A Snow Light Snow
2:58 PM 27.3°F 27.3°F 100% 30.01 in 1.0 miles SE 12.7 mph - 0.00 in Snow Light Snow
3:03 PM 26.6°F 26.6°F 100% 29.91 in 1.2 miles SE 11.5 mph 19.6 mph N/A Snow Light Snow
3:13 PM 26.6°F 26.6°F 100% 29.91 in 1.0 miles SE 12.7 mph - N/A Snow Light Snow
3:25 PM 26.6°F 26.6°F 100% 29.91 in 1.0 miles SE 15.0 mph - N/A Snow Light Snow
3:30 PM 26.6°F 26.6°F 100% 29.91 in 1.2 miles SE 12.7 mph - N/A Snow Light Snow
3:45 PM 26.6°F 26.6°F 100% 29.90 in 1.0 miles SSE 16.1 mph - N/A Snow Light Snow
3:58 PM 27.3°F 27.3°F 100% 30.00 in 1.0 miles SE 12.7 mph - N/A Snow Light Snow
4:03 PM 26.6°F 26.6°F 100% 29.90 in 0.8 miles SE 13.8 mph - N/A Snow Light Snow
4:07 PM 26.6°F 26.6°F 100% 29.90 in 0.8 miles SE 13.8 mph - N/A Snow Light Snow
4:17 PM 26.6°F 26.6°F 100% 29.89 in 0.5 miles SE 16.1 mph 24.2 mph N/A Fog , Snow Light Freezing Fog
4:22 PM 26.6°F 26.6°F 100% 29.90 in 0.8 miles SE 15.0 mph - N/A Snow Light Snow
4:27 PM 26.6°F 26.6°F 100% 29.90 in 1.0 miles SSE 16.1 mph 24.2 mph N/A   Overcast
4:42 PM 26.6°F 26.6°F 100% 29.90 in 1.0 miles SSE 13.8 mph - N/A Snow Light Snow
4:47 PM 26.6°F 26.6°F 100% 29.90 in 0.8 miles SSE 13.8 mph - N/A Snow Light Snow
4:49 PM 26.6°F 26.6°F 100% 29.90 in 0.8 miles SSE 11.5 mph - N/A Snow Light Snow
4:58 PM 27.5°F 27.5°F 100% 30.00 in 0.8 miles SSE 16.1 mph - 0.00 in Snow Light Snow
5:08 PM 28.4°F 28.4°F 100% 29.90 in 1.0 miles SSE 17.3 mph - N/A Snow Light Snow
5:33 PM 28.4°F 28.4°F 100% 29.89 in 0.8 miles SSE 16.1 mph - N/A Snow Light Snow
5:38 PM 28.4°F 28.4°F 100% 29.89 in 0.8 miles SSE 16.1 mph - N/A Snow Light Snow
5:41 PM 28.4°F 28.4°F 100% 29.89 in 0.8 miles SSE 18.4 mph - N/A Snow Light Snow
5:56 PM 26.6°F 26.6°F 100% 29.88 in 0.8 miles SSE 20.7 mph - N/A Snow Light Snow
5:58 PM 27.5°F 27.5°F 100% 29.97 in 0.8 miles SSE 17.3 mph - 0.00 in Snow Light Snow
6:00 PM 26.6°F 26.6°F 100% 29.88 in 0.8 miles SSE 17.3 mph - N/A Snow Light Snow
6:05 PM 28.4°F 28.4°F 100% 29.88 in 1.0 miles SSE 18.4 mph - N/A Snow Light Snow
6:25 PM 28.4°F 28.4°F 100% 29.88 in 1.0 miles SSE 16.1 mph 31.1 mph N/A Snow Light Snow
6:30 PM 28.4°F 28.4°F 100% 29.87 in 1.0 miles SSE 18.4 mph 27.6 mph N/A Snow Light Snow
6:40 PM 28.4°F 28.4°F 100% 29.87 in 1.0 miles SSE 19.6 mph - N/A Snow Light Snow
6:45 PM 28.4°F 28.4°F 100% 29.87 in 1.0 miles SE 21.9 mph 28.8 mph N/A Snow Light Snow
6:55 PM 28.4°F 28.4°F 100% 29.86 in 1.0 miles SSE 20.7 mph - N/A Snow Light Snow
6:58 PM 28.4°F 28.4°F 100% 29.87 in 1.0 miles SE 20.7 mph 26.5 mph 0.00 in Snow Light Snow
7:03 PM 28.4°F 28.4°F 100% 29.87 in 1.0 miles SSE 20.7 mph 27.6 mph N/A   Overcast
7:13 PM 28.4°F 28.4°F 100% 29.86 in 1.0 miles SSE 23.0 mph 29.9 mph N/A Snow Light Snow
7:18 PM 28.4°F 28.4°F 100% 29.86 in 1.0 miles SE 20.7 mph 29.9 mph N/A Snow Light Snow
7:23 PM 28.4°F 28.4°F 100% 29.87 in 0.8 miles SE 23.0 mph 28.8 mph N/A Snow Light Snow
7:28 PM 28.4°F 28.4°F 100% 29.86 in 0.8 miles SSE 18.4 mph 27.6 mph N/A Snow Light Snow
7:38 PM 28.4°F 28.4°F 100% 29.86 in 0.8 miles SE 18.4 mph 25.3 mph N/A Snow Light Snow
7:48 PM 28.4°F 28.4°F 100% 29.85 in 0.8 miles SE 20.7 mph 26.5 mph N/A Snow Light Snow
7:53 PM 28.4°F 28.4°F 100% 29.85 in 1.0 miles SE 23.0 mph - N/A Snow Light Snow
7:58 PM 28.6°F 28.6°F 100% 29.95 in 1.0 miles SE 21.9 mph - 0.00 in Snow Light Snow
8:08 PM 28.4°F 28.4°F 100% 29.86 in 0.8 miles SSE 19.6 mph 26.5 mph N/A Snow Light Snow
8:13 PM 28.4°F 28.4°F 100% 29.86 in 1.0 miles SE 18.4 mph - N/A   Overcast
8:43 PM 30.2°F 30.2°F 100% 29.85 in 1.0 miles SE 19.6 mph 25.3 mph N/A Snow Light Snow
8:53 PM 30.2°F 30.2°F 100% 29.85 in 1.5 miles SE 18.4 mph 28.8 mph N/A Snow Light Snow
8:58 PM 32.0°F 32.0°F 100% 29.93 in 4.0 miles SE 20.7 mph 26.5 mph 0.00 in Snow Light Snow
9:02 PM 32.0°F 32.0°F 100% 29.85 in 10.0 miles SE 21.9 mph 26.5 mph N/A Snow Light Snow
9:37 PM 32.0°F 32.0°F 100% 29.85 in 8.0 miles SE 23.0 mph 28.8 mph N/A Snow Light Snow
9:58 PM 31.1°F 30.7°F 99% 29.93 in 10.0 miles SE 20.7 mph 27.6 mph 0.00 in   Overcast
10:58 PM 30.6°F 30.6°F 100% 29.94 in 4.0 miles SSE 17.3 mph - 0.00 in   Overcast
11:13 PM 32.0°F 32.0°F 100% 29.85 in 6.0 miles SE 18.4 mph 24.2 mph N/A   Overcast
11:58 PM 30.2°F 30.2°F 100% 29.93 in 6.0 miles SE 18.4 mph 29.9 mph 0.00 in   Overcast
Moon Phase
Dec. 19 Dec. 20 Dec. 28 Jan. 04 Jan. 11
Sunrise:07:35 AM (PST) Moon Rise:11:18 AM (PST)12/19
Sunset:04:00 PM (PST) Moon Set:No Moon Set/

Copyright © 2014 The Weather Underground, Inc.